Bellmunt





Hora UTC 10:20
Temperatura 17.0 ºC
Humitat 70.0 %
Pressió 1007.7 hPa
Pluja 0.2 mm
Velocitat vent 4.8 km/h
Direcció vent SSE

Dades diàries 2021-05-14



Hora UTC (hivern +1h; estiu +2h)
Temperatura (ºC) Humitat (%) Pressió (hPa) Velocitat vent (km/h) Precipitació (mm)
Hora UTC Aire Humitat Pressió Vel. Dir. Vel. Max Dir. Intent. màx 5 min.
00:05 9.9 63.0 1006.3 0.0 N 0.0 0.0
00:10 10.1 64.0 1006.3 3.2 N 4.8 0.0
00:15 10.2 64.0 1006.3 4.8 N 6.4 0.0
00:20 10.3 63.0 1006.3 3.2 N 6.4 0.0
00:25 10.4 62.0 1006.1 3.2 N 4.8 0.0
00:30 10.6 62.0 1006.1 0.0 N 4.8 0.0
00:35 10.6 61.0 1006.0 0.0 N 4.8 0.0
00:40 10.7 61.0 1006.1 0.0 N 3.2 0.0
00:45 10.6 61.0 1006.1 0.0 N 1.6 0.0
00:50 10.5 62.0 1006.0 1.6 N 6.4 0.0
00:55 10.6 61.0 1005.8 0.0 N 6.4 0.0
01:00 10.8 61.0 1005.9 3.2 N 6.4 0.0
01:05 10.9 61.0 1005.9 3.2 NNE 6.4 0.0
01:10 11.1 60.0 1005.8 6.4 NNE 6.4 0.0
01:15 11.2 60.0 1005.8 0.0 NNE 6.4 0.0
01:20 11.3 60.0 1005.9 0.0 NNE 4.8 0.0
01:25 11.1 61.0 1005.8 0.0 NNE 1.6 0.0
01:30 11.0 61.0 1005.9 0.0 NNE 1.6 0.0
01:35 10.9 61.0 1005.9 0.0 NNE 1.6 0.0
01:40 11.0 61.0 1005.8 0.0 NNE 3.2 0.0
01:45 11.1 60.0 1005.8 3.2 NNE 8.0 0.0
01:50 11.1 60.0 1005.7 6.4 NNE 8.0 0.0
01:55 11.1 60.0 1005.7 4.8 NNE 8.0 0.0
02:00 11.3 60.0 1005.6 8.0 NNE 11.3 0.0
02:05 11.4 60.0 1005.7 8.0 NNE 11.3 0.0
02:10 11.6 60.0 1005.8 4.8 NNE 9.7 0.0
02:15 11.6 59.0 1005.7 4.8 NNE 9.7 0.0
02:20 11.7 59.0 1005.7 0.0 NNE 6.4 0.0
02:25 11.7 60.0 1005.7 3.2 NNE 6.4 0.0
02:30 11.7 59.0 1005.7 0.0 NNE 6.4 0.0
02:35 11.7 59.0 1005.7 0.0 NNE 6.4 0.0
02:40 11.8 59.0 1005.7 0.0 NNE 3.2 0.0
02:45 11.7 60.0 1005.5 0.0 NNE 3.2 0.0
02:50 11.5 61.0 1005.5 0.0 NNE 0.0 0.0
02:55 11.4 62.0 1005.5 0.0 NNE 0.0 0.0
03:00 11.2 63.0 1005.4 0.0 NNE 0.0 0.0
03:05 11.1 63.0 1005.3 0.0 NNE 3.2 0.0
03:10 11.1 64.0 1005.4 0.0 NNE 3.2 0.0
03:15 10.9 64.0 1005.3 0.0 NNE 1.6 0.0
03:20 10.9 64.0 1005.4 0.0 NNE 3.2 0.0
03:25 10.8 65.0 1005.6 3.2 NNE 3.2 0.0
03:30 10.8 65.0 1005.6 4.8 NNE 4.8 0.0
03:35 10.8 65.0 1005.6 3.2 NNE 4.8 0.0
03:40 10.8 65.0 1005.6 0.0 NNE 4.8 0.0
03:45 10.9 65.0 1005.6 0.0 NNE 1.6 0.0
03:50 10.9 66.0 1005.6 0.0 NNE 1.6 0.0
03:55 11.0 66.0 1005.5 0.0 NNE 4.8 0.0
04:00 10.9 66.0 1005.2 1.6 NNE 4.8 0.0
04:05 10.9 65.0 1005.5 0.0 NNE 4.8 0.0
04:05 10.9 65.0 1005.4 0.0 NNE 1.6 0.0
04:15 10.9 65.0 1005.5 0.0 NNE 0.0 0.0
04:20 10.9 65.0 1005.4 0.0 NNE 0.0 0.0
04:25 10.9 65.0 1005.4 0.0 NNE 0.0 0.0
04:30 10.9 65.0 1005.4 0.0 NNE 0.0 0.0
04:35 10.9 66.0 1005.5 0.0 NNE 1.6 0.0
04:40 10.9 66.0 1005.5 0.0 NNE 1.6 0.0
04:45 10.8 68.0 1005.5 0.0 NNE 0.0 0.0
04:50 10.8 67.0 1005.5 0.0 NNE 0.0 0.0
04:55 10.7 68.0 1005.7 0.0 NNE 1.6 0.0
05:00 10.7 68.0 1005.7 0.0 NNE 0.0 0.0
05:05 10.7 69.0 1005.8 0.0 NNE 0.0 0.0
05:10 10.7 69.0 1005.8 0.0 NNE 1.6 0.0
05:15 10.7 69.0 1005.8 0.0 NNE 1.6 0.0
05:20 10.8 69.0 1005.8 0.0 NNE 1.6 0.0
05:25 10.9 69.0 1005.8 0.0 NNE 1.6 0.0
05:30 11.0 69.0 1005.8 0.0 NNE 1.6 0.0
05:35 11.1 69.0 1005.9 0.0 NNE 1.6 0.0
05:40 11.2 69.0 1006.0 0.0 NNE 1.6 0.0
05:45 11.2 70.0 1006.0 0.0 NNE 1.6 0.0
05:50 11.2 70.0 1006.0 0.0 NNE 1.6 0.2
05:55 11.1 70.0 1006.0 0.0 NNE 1.6 0.0
06:00 11.1 71.0 1006.0 0.0 NNE 1.6 0.0
06:05 11.1 72.0 1006.2 0.0 NNE 1.6 0.0
06:10 11.0 72.0 1006.2 0.0 NNE 1.6 0.0
06:15 10.9 73.0 1006.3 0.0 NNE 3.2 0.0
06:20 10.9 73.0 1006.3 0.0 NNE 3.2 0.0
06:25 10.9 74.0 1006.3 0.0 NNE 1.6 0.0
06:30 11.1 75.0 1006.3 0.0 NNE 0.0 0.0
06:35 11.2 76.0 1006.4 0.0 NNE 0.0 0.0
06:40 11.4 76.0 1006.4 0.0 NNE 0.0 0.0
06:45 11.7 76.0 1006.4 0.0 NNE 0.0 0.0
06:50 11.8 75.0 1006.6 0.0 NNE 1.6 0.0
06:55 11.9 75.0 1006.6 0.0 NNE 3.2 0.0
07:00 11.9 73.0 1006.6 0.0 NNE 3.2 0.0
07:05 11.9 72.0 1006.7 0.0 NNE 1.6 0.0
07:10 12.0 71.0 1006.8 0.0 NNE 1.6 0.0
07:15 12.2 71.0 1006.8 1.6 NNE 1.6 0.0
07:20 12.2 69.0 1006.8 1.6 NNE 1.6 0.0
07:25 12.4 68.0 1006.8 0.0 NNE 1.6 0.0
07:30 12.6 64.0 1006.8 0.0 NNE 1.6 0.0
07:35 13.1 63.0 1006.7 0.0 NNE 1.6 0.0
07:40 13.6 62.0 1006.8 1.6 NNE 1.6 0.0
07:45 14.0 59.0 1007.0 0.0 NNE 6.4 0.0
07:50 14.2 57.0 1007.1 4.8 SSE 6.4 0.0
07:55 14.2 58.0 1007.3 4.8 SSW 9.7 0.0
08:00 14.2 59.0 1007.2 1.6 SSW 11.3 0.0
08:05 14.4 58.0 1007.4 8.0 SSE 12.9 0.0
08:10 14.6 57.0 1007.4 3.2 SE 12.9 0.0
08:15 14.8 58.0 1007.3 12.9 SE 12.9 0.0
08:20 14.9 55.0 1007.3 4.8 ESE 12.9 0.0
08:25 14.7 58.0 1007.4 12.9 SSE 20.9 0.0
08:30 14.6 59.0 1007.5 14.5 SE 22.5 0.0
08:35 14.2 58.0 1007.5 4.8 SE 22.5 0.0
08:40 14.2 60.0 1007.5 14.5 SE 17.7 0.0
08:45 14.4 58.0 1007.5 16.1 SE 19.3 0.0
08:50 14.7 82.0 1007.4 14.5 ESE 19.3 0.0
08:55 14.7 82.0 1007.4 12.9 SSE 20.9 0.0
09:00 14.7 82.0 1007.4 6.4 SE 22.5 0.0
09:05 14.8 81.0 1007.3 4.8 SSE 22.5 0.0
09:10 14.6 78.0 1007.4 1.6 ESE 22.5 0.0
09:15 14.6 80.0 1007.4 0.0 SE 22.5 0.0
09:20 14.6 78.0 1007.5 1.6 WNW 22.5 0.0
09:25 14.8 79.0 1007.5 1.6 NE 22.5 0.0
09:30 14.8 80.0 1007.5 9.7 NE 22.5 0.0
09:35 15.1 80.0 1007.6 11.3 E 22.5 0.0
09:40 15.2 76.0 1007.7 16.1 ESE 22.5 0.0
09:45 15.1 77.0 1007.6 4.8 ESE 22.5 0.0
09:50 15.1 77.0 1007.6 8.0 ESE 22.5 0.0
09:55 15.1 76.0 1007.7 6.4 ESE 22.5 0.0
10:00 14.9 78.0 1007.6 11.3 ESE 14.5 0.0
10:05 15.2 75.0 1007.7 4.8 SSE 14.5 0.0
10:10 15.5 76.0 1007.4 8.0 ESE 16.1 0.0
10:15 16.1 74.0 1007.6 0.0 SE 17.7 0.0
10:20 17.0 70.0 1007.7 4.8 SSE 17.7 0.0
Màxima 17.0 82.0 1007.7 16.1 ESE 22.5 0.2
Mínima 9.9 55.0 1005.2
Total 0.2